STARLINK-1656 (46353 NORAD) Tracking and Keplerian Element Data

This shows tracking and keplerian element data for the satellite.

Feedback or suggestion? Click here.




ElementValue
Catalog46353
NameSTARLINK-1656
Epoch Orbit1441
Epoch Day336.16667824
Epoch Year2020
RAAN16.1824
Inclination52.9907
Eccentricity0.0001242
Argument of Perigee77.6496
Mean Anonmoly83.3711
Mean Motion15.0558609
Decay Rate-0.00018895
L11 46353U 20062AE 20336.16667824 -.00018895 00000-0 -12809-2 0 9990
L22 46353 52.9907 16.1824 0001242 77.6496 83.3711 15.05586090 14417

Live tracking and technical data element details for STARLINK-1656 (NORAD 46353). STARLINK-1656 can be tracked NOW for your location showing map with azimuth and elevation plus other details from your city location.

Track the satellite on the map from your city or location and see movement details for azimuth, elevation, latitude, longitude, range, height, and movement on the map or in text.







IsCatalogInMostPopularTable: catalog: 46353, numindb: 28
Update: records affected: 1



GetName: 46353 STARLINK-1656

Hit Count: updated at: Wed, 02 Dec 2020 06:20:47 GMT